Location: Newark
(35.6799°N, 139.7636°E)
Time: 05:05:38
(UTC+00:00)

Explorer 7 - Pass Details

Date: 09 December 2019
Orbit: 485 x 679 km, 50.3° (Epoch: 18 January)

Event Time Altitude Azimuth Distance (km) Brightness Sun altitude
Rises 10:06:49 0° 304° (NW) 3,033 11.2 -31.6°
Reaches altitude 10° 10:10:21 10° 330° (NNW) 2,112 10.0 -32.3°
Enters shadow 10:10:37 11° 333° (NNW) 2,063 9.9 -32.3°
Maximum altitude 10:12:54 14° 1° (N) 1,844 - -32.8°
Drops below altitude 10° 10:15:25 10° 33° (NNE) 2,085 - -33.3°
Sets 10:18:52 0° 59° (ENE) 2,965 - -34.0°
